Flag for U.S.A. Weather past 2 weeks in Idaho Falls, Idaho, U.S.A.

Now
57 °F

Clear.


Feels Like: 55 °F
Forecast: 39 / 55 °F
Wind: 8 mph from Southeast

Location: Fanning Field

Current Time: Oct 20, 2014 at 10:02:11 PM

Latest Report: Oct 20, 2014 at 8:53 PM


Visibility: 10 mi

Pressure: 29.88 "Hg

Humidity: 47%

Dew point: 37 °F

Location of Idaho FallsLocation

Historic Weather in Idaho Falls — Graph

°F

Idaho Falls temperature yesterday

Maximum temperature yesterday: 70 °F (at 4:53 PM)
Minimum temperature yesterday: 31 °F (at 4:53 AM)
Average temperature yesterday: 48 °F

Past Weeks' High & Low Weather Summary

 TemperatureHumidityPressure
High73 °F (Oct 7, 3:53 PM)93% (Oct 7, 6:53 AM)30.29 "Hg (Oct 7, 6:53 AM)
Low29 °F (Oct 16, 5:53 AM)18% (Oct 15, 2:53 PM)29.73 "Hg (Oct 15, 1:53 PM)
Average51 °F59%30.04 "Hg
* Reported Oct 5 7:53 PM — Oct 20 7:53 PM, Idaho Falls, Weather by CustomWeather, © 2014

Note: Actual official high and low records may vary slightly from our data, if they occured in-between our weather recording intervals... More about our weather records

Advertising

Idaho Falls weather history for previous 24 hours

 ConditionsComfort  
Time TempWeatherWind HumidityBarometerVisibility
7:53 PM
Oct 20
59 °FSunny.9 mph44%29.89 "Hg10 mi
6:53 PM66 °FPassing clouds.7 mph36%29.87 "Hg10 mi
5:53 PM71 °FScattered clouds.12 mph30%29.87 "Hg10 mi
4:53 PM72 °FScattered clouds.7 mph28%29.88 "Hg10 mi
3:53 PM73 °FPartly sunny.6 mph27%29.90 "Hg10 mi
2:53 PM71 °FPartly sunny.5 mph29%29.91 "Hg10 mi
1:53 PM68 °FPartly sunny.3 mph31%29.94 "Hg10 mi
12:53 PM67 °FScattered clouds.No wind30%29.98 "Hg10 mi
11:53 AM62 °FScattered clouds.7 mph38%30.01 "Hg10 mi
10:53 AM55 °FScattered clouds.5 mph49%30.03 "Hg10 mi
9:53 AM47 °FScattered clouds.7 mph61%30.06 "Hg10 mi
8:53 AM38 °FClear.6 mph76%30.07 "Hg10 mi
7:53 AM33 °FClear.5 mph85%30.05 "Hg10 mi
6:53 AM35 °FClear.8 mph82%30.04 "Hg10 mi
5:53 AM34 °FClear.7 mph82%30.01 "Hg10 mi
4:53 AM34 °FClear.7 mph82%30.01 "Hg10 mi
3:53 AM35 °FClear.6 mph78%30.01 "Hg10 mi
2:53 AM37 °FClear.7 mph76%30.01 "Hg10 mi
1:53 AM37 °FClear.5 mph76%30.02 "Hg10 mi
12:53 AM38 °FClear.5 mph76%30.02 "Hg10 mi
11:53 PM
Oct 19
40 °FClear.3 mph73%30.03 "Hg10 mi
10:53 PM39 °FClear.5 mph70%30.04 "Hg10 mi
Weather by CustomWeather, © 2014

See weather overviewHow to use our weather pages